Weather History for KYIP - July, 2013

Change the Weather History Date:

Sunday, July 21, 2013

  Actual Average Record
Temperature  
Mean Temperature 75 °F -  
Max Temperature 86 °F 84 °F 102 °F (2011)
Min Temperature 66 °F 64 °F 33 °F (1997)
Cooling Degree Days 10    
Growing Degree Days 25 (Base 50)    
Moisture  
Dew Point 60 °F    
Average Humidity 61    
Maximum Humidity 81    
Minimum Humidity 38    
Precipitation  
Precipitation 0.00 in - - ()
Sea Level Pressure  
Sea Level Pressure 29.96 in    
Wind  
Wind Speed 4 mph (NE)    
Max Wind Speed 8 mph    
Max Gust Speed -    
Visibility 10 miles    
Events      
Averages and records for this station are not official NWS values.
T = Trace of Precipitation, MM = Missing Value Source: NWS Daily Summary

Daily Weather History Graph

Daily Weather History Graph

Search for Another Location

Airport or City:

Trip Planner

Search our weather history database for the weather conditions in past years. The results will help you decide how hot, cold, wet, or windy it might be!

Date:

Astronomy

Jul. 21, 2013 Rise Set
Actual Time 6:16 AM EDT 9:04 PM EDT
Civil Twilight 5:43 AM EDT 9:36 PM EDT
Nautical Twilight 5:02 AM EDT 10:18 PM EDT
Astronomical Twilight 4:14 AM EDT 11:05 PM EDT
Moon 8:00 PM EDT (7/21) 5:01 AM EDT (7/21)
Length of Visible Light 15h 53m
Length of Day
14h 47m
Waxing Gibbous, 98% of the Moon is Illuminated
Jul 21
Waxing Gibbous
Jul 22
Full
Jul 29
Last Quarter
Aug 6
New
Aug 14
First Quarter

Hourly Weather History & Observations

Time (EDT) Temp. Heat Index Dew Point Humidity Pressure Visibility Wind Dir Wind Speed Gust Speed Precip Events Conditions
12:53 AM 71.1 °F - 64.0 °F 78% 29.91 in 10.0 mi Calm Calm - N/A   Clear
1:53 AM 70.0 °F - 64.0 °F 81% 29.93 in 10.0 mi NE 5.8 mph - 0.00 in   Clear
2:53 AM 70.0 °F - 62.1 °F 76% 29.93 in 10.0 mi NE 8.1 mph - N/A   Clear
3:53 AM 66.9 °F - 59.0 °F 76% 29.93 in 10.0 mi NNE 8.1 mph - N/A   Partly Cloudy
4:53 AM 66.9 °F - 57.9 °F 73% 29.94 in 10.0 mi NE 4.6 mph - N/A   Clear
5:53 AM 66.0 °F - 57.0 °F 73% 29.95 in 10.0 mi NNE 4.6 mph - N/A   Clear
6:53 AM 66.0 °F - 55.9 °F 70% 29.97 in 10.0 mi NNE 5.8 mph - N/A   Clear
7:53 AM 66.9 °F - 55.0 °F 66% 29.99 in 10.0 mi NNE 4.6 mph - N/A   Clear
8:53 AM 70.0 °F - 55.0 °F 59% 29.99 in 10.0 mi NNE 8.1 mph - N/A   Clear
9:53 AM 75.0 °F - 57.0 °F 53% 30.00 in 10.0 mi NE 6.9 mph - N/A   Clear
10:53 AM 77.0 °F - 57.9 °F 52% 30.00 in 10.0 mi Variable 3.5 mph - N/A   Clear
11:53 AM 78.1 °F - 60.1 °F 54% 30.01 in 10.0 mi Calm Calm - N/A   Clear
12:53 PM 81.0 °F 81.7 °F 61.0 °F 50% 29.99 in 10.0 mi Variable 3.5 mph - N/A   Clear
1:53 PM 82.9 °F 83.3 °F 61.0 °F 47% 29.98 in 10.0 mi NNW 3.5 mph - N/A   Clear
2:53 PM 82.9 °F 83.2 °F 60.1 °F 46% 29.97 in 10.0 mi Calm Calm - N/A   Clear
3:53 PM 84.9 °F 83.9 °F 57.0 °F 38% 29.96 in 10.0 mi Calm Calm - N/A   Clear
4:53 PM 82.9 °F 82.8 °F 59.0 °F 44% 29.95 in 10.0 mi Calm Calm - N/A   Partly Cloudy
5:53 PM 84.0 °F 83.8 °F 59.0 °F 43% 29.93 in 10.0 mi Calm Calm - N/A   Clear
6:53 PM 84.9 °F 84.4 °F 59.0 °F 41% 29.92 in 10.0 mi Calm Calm - N/A   Clear
7:53 PM 82.0 °F 83.4 °F 64.0 °F 54% 29.92 in 10.0 mi East 5.8 mph - N/A   Clear
8:53 PM 77.0 °F - 66.0 °F 69% 29.94 in 10.0 mi ESE 5.8 mph - N/A   Partly Cloudy
9:53 PM 73.9 °F - 64.9 °F 73% 29.95 in 10.0 mi SE 4.6 mph - N/A   Clear
10:53 PM 73.9 °F - 63.0 °F 68% 29.96 in 10.0 mi SE 5.8 mph - N/A   Clear
11:53 PM 73.0 °F - 64.9 °F 76% 29.96 in 10.0 mi SE 4.6 mph - N/A   Clear